| time (UTC) | temp F | wind direction | speed MPH | gust MPH | rain 1hr in | rain 24hr in | rain mn in | humidity % | barometer mb |
| 20260506204545 | 74 | 233 | 3.0 | 13.0 | 0.00 | 0.00 | 0.00 | 22 | 1021.2 |
| 20260506204039 | 74 | 183 | 5.0 | 13.0 | 0.00 | 0.00 | 0.00 | 21 | 1021.2 |
| 20260506203540 | 74 | 191 | 2.0 | 14.0 | 0.00 | 0.00 | 0.00 | 22 | 1021.2 |
| 20260506203058 | 73 | 314 | 7.0 | 14.0 | 0.00 | 0.00 | 0.00 | 21 | 1021.2 |
| 20260506202541 | 73 | 229 | 4.0 | 14.0 | 0.00 | 0.00 | 0.00 | 20 | 1021.2 |
| 20260506202039 | 73 | 241 | 6.0 | 12.0 | 0.00 | 0.00 | 0.00 | 22 | 1021.2 |
| 20260506201551 | 73 | 0 | 4.0 | 12.0 | 0.00 | 0.00 | 0.00 | 22 | 1021.2 |
| 20260506201040 | 72 | 221 | 5.0 | 11.0 | 0.00 | 0.00 | 0.00 | 23 | 1021.2 |
| 20260506200539 | 72 | 311 | 5.0 | 11.0 | 0.00 | 0.00 | 0.00 | 23 | 1021.2 |
| 20260506200054 | 72 | 219 | 4.0 | 9.0 | 0.00 | 0.00 | 0.00 | 23 | 1021.2 |
| 20260506195540 | 71 | 160 | 4.0 | 9.0 | 0.00 | 0.00 | 0.00 | 24 | 1021.2 |
| 20260506195041 | 70 | 145 | 2.0 | 7.0 | 0.00 | 0.00 | 0.00 | 25 | 1021.2 |
| 20260506194553 | 70 | 186 | 1.0 | 8.0 | 0.00 | 0.00 | 0.00 | 24 | 1021.2 |
| 20260506194040 | 70 | 249 | 2.0 | 9.0 | 0.00 | 0.00 | 0.00 | 24 | 1021.2 |
| 20260506193540 | 70 | 349 | 4.0 | 12.0 | 0.00 | 0.00 | 0.00 | 25 | 1021.2 |
| 20260506193052 | 70 | 234 | 3.0 | 12.0 | 0.00 | 0.00 | 0.00 | 25 | 1021.2 |
| 20260506192540 | 70 | 213 | 4.0 | 10.0 | 0.00 | 0.00 | 0.00 | 24 | 1021.2 |
| 20260506192040 | 71 | 218 | 4.0 | 10.0 | 0.00 | 0.00 | 0.00 | 23 | 1021.2 |
| 20260506191548 | 70 | 196 | 4.0 | 13.0 | 0.00 | 0.00 | 0.00 | 24 | 1021.2 |
| 20260506191040 | 70 | 217 | 4.0 | 14.0 | 0.00 | 0.00 | 0.00 | 22 | 1021.2 |
| 20260506190542 | 70 | 263 | 9.0 | 14.0 | 0.00 | 0.00 | 0.00 | 22 | 1021.2 |
| 20260506190045 | 71 | 183 | 4.0 | 13.0 | 0.00 | 0.00 | 0.00 | 23 | 1021.2 |
| 20260506185539 | 70 | 253 | 8.0 | 13.0 | 0.00 | 0.00 | 0.00 | 25 | 1021.2 |
| 20260506185040 | 70 | 246 | 4.0 | 10.0 | 0.00 | 0.00 | 0.00 | 25 | 1021.2 |
| 20260506184543 | 70 | 348 | 3.0 | 9.0 | 0.00 | 0.00 | 0.00 | 27 | 1021.2 |
| 20260506184040 | 70 | 317 | 3.0 | 11.0 | 0.00 | 0.00 | 0.00 | 25 | 1021.2 |
| 20260506183543 | 70 | 328 | 2.0 | 14.0 | 0.00 | 0.00 | 0.00 | 27 | 1021.2 |
| 20260506183058 | 69 | 204 | 5.0 | 14.0 | 0.00 | 0.00 | 0.00 | 25 | 1021.2 |
| 20260506182540 | 70 | 226 | 3.0 | 11.0 | 0.00 | 0.00 | 0.00 | 27 | 1021.2 |
| 20260506182039 | 69 | 295 | 5.0 | 11.0 | 0.00 | 0.00 | 0.00 | 28 | 1021.2 |
| 20260506181559 | 69 | 212 | 4.0 | 11.0 | 0.00 | 0.00 | 0.00 | 28 | 1021.2 |
| 20260506181040 | 69 | 278 | 4.0 | 11.0 | 0.00 | 0.00 | 0.00 | 28 | 1021.2 |
| 20260506180541 | 69 | 203 | 3.0 | 9.0 | 0.00 | 0.00 | 0.00 | 28 | 1021.2 |
| 20260506180048 | 69 | 295 | 1.0 | 8.0 | 0.00 | 0.00 | 0.00 | 29 | 1021.2 |
| 20260506175540 | 69 | 221 | 3.0 | 10.0 | 0.00 | 0.00 | 0.00 | 30 | 1021.2 |
| 20260506175039 | 68 | 327 | 3.0 | 10.0 | 0.00 | 0.00 | 0.00 | 32 | 1021.2 |
| 20260506174545 | 68 | 223 | 4.0 | 10.0 | 0.00 | 0.00 | 0.00 | 31 | 1021.2 |
| 20260506174039 | 68 | 230 | 4.0 | 13.0 | 0.00 | 0.00 | 0.00 | 31 | 1021.2 |
| 20260506173537 | 68 | 345 | 4.0 | 13.0 | 0.00 | 0.00 | 0.00 | 32 | 1021.2 |
| 20260506173107 | 67 | 90 | 3.0 | 14.0 | 0.00 | 0.00 | 0.00 | 33 | 1021.2 |
| 20260506172538 | 67 | 345 | 4.0 | 14.0 | 0.00 | 0.00 | 0.00 | 32 | 1021.2 |
| 20260506172037 | 67 | 261 | 2.0 | 10.0 | 0.00 | 0.00 | 0.00 | 33 | 1021.2 |
| 20260506171556 | 68 | 17 | 4.0 | 10.0 | 0.00 | 0.00 | 0.00 | 30 | 1021.2 |
| 20260506171038 | 68 | 316 | 2.0 | 9.0 | 0.00 | 0.00 | 0.00 | 33 | 1021.2 |
| 20260506170538 | 67 | 303 | 3.0 | 9.0 | 0.00 | 0.00 | 0.00 | 34 | 1021.2 |
| 20260506170059 | 67 | 276 | 4.0 | 9.0 | 0.00 | 0.00 | 0.00 | 34 | 1021.2 |
| 20260506165538 | 66 | 321 | 4.0 | 9.0 | 0.00 | 0.00 | 0.00 | 34 | 1021.2 |
| 20260506165038 | 66 | 239 | 3.0 | 8.0 | 0.00 | 0.00 | 0.00 | 34 | 1021.2 |
| 20260506164552 | 66 | 313 | 3.0 | 10.0 | 0.00 | 0.00 | 0.00 | 35 | 1021.2 |
| 20260506164037 | 65 | 319 | 3.0 | 10.0 | 0.00 | 0.00 | 0.00 | 34 | 1021.2 |
| 20260506163539 | 65 | 339 | 3.0 | 11.0 | 0.00 | 0.00 | 0.00 | 36 | 1021.2 |
| 20260506163054 | 65 | 0 | 3.0 | 12.0 | 0.00 | 0.00 | 0.00 | 35 | 1021.2 |
| 20260506162537 | 64 | 229 | 3.0 | 12.0 | 0.00 | 0.00 | 0.00 | 36 | 1021.2 |
| 20260506162037 | 65 | 221 | 5.0 | 11.0 | 0.00 | 0.00 | 0.00 | 35 | 1021.2 |
| 20260506161550 | 64 | 331 | 2.0 | 9.0 | 0.00 | 0.00 | 0.00 | 35 | 1021.2 |
| 20260506161037 | 64 | 285 | 3.0 | 7.0 | 0.00 | 0.00 | 0.00 | 34 | 1021.2 |
| 20260506160537 | 64 | 277 | 3.0 | 9.0 | 0.00 | 0.00 | 0.00 | 34 | 1021.2 |
| 20260506160108 | 64 | 307 | 3.0 | 9.0 | 0.00 | 0.00 | 0.00 | 34 | 1021.2 |
| 20260506155538 | 64 | 343 | 1.0 | 9.0 | 0.00 | 0.00 | 0.00 | 35 | 1021.2 |
| 20260506155038 | 63 | 285 | 1.0 | 9.0 | 0.00 | 0.00 | 0.00 | 34 | 1021.2 |
| 20260506154558 | 63 | 28 | 2.0 | 9.0 | 0.00 | 0.00 | 0.00 | 34 | 1021.2 |
| 20260506154040 | 63 | 283 | 2.0 | 9.0 | 0.00 | 0.00 | 0.00 | 34 | 1021.2 |
| 20260506153540 | 63 | 321 | 2.0 | 6.0 | 0.00 | 0.00 | 0.00 | 34 | 1021.2 |
| 20260506153053 | 63 | 338 | 2.0 | 6.0 | 0.00 | 0.00 | 0.00 | 34 | 1021.2 |
| 20260506152540 | 63 | 345 | 1.0 | 9.0 | 0.00 | 0.00 | 0.00 | 34 | 1021.2 |
| 20260506152039 | 63 | 333 | 2.0 | 9.0 | 0.00 | 0.00 | 0.00 | 33 | 1021.2 |
| 20260506151547 | 63 | 0 | 2.0 | 6.0 | 0.00 | 0.00 | 0.00 | 34 | 1021.2 |
| 20260506151037 | 62 | 315 | 2.0 | 5.0 | 0.00 | 0.00 | 0.00 | 34 | 1021.2 |
| 20260506150537 | 62 | 248 | 0.0 | 5.0 | 0.00 | 0.00 | 0.00 | 34 | 1021.2 |
| 20260506150057 | 62 | 339 | 2.0 | 5.0 | 0.00 | 0.00 | 0.00 | 33 | 1021.2 |
| 20260506145538 | 62 | 346 | 1.0 | 6.0 | 0.00 | 0.00 | 0.00 | 33 | 1021.2 |
| 20260506145038 | 62 | 330 | 1.0 | 6.0 | 0.00 | 0.00 | 0.00 | 33 | 1021.2 |
| 20260506144552 | 62 | 25 | 1.0 | 4.0 | 0.00 | 0.00 | 0.00 | 33 | 1021.2 |
| 20260506144039 | 62 | 0 | 1.0 | 4.0 | 0.00 | 0.00 | 0.00 | 34 | 1021.2 |
| 20260506143539 | 62 | 295 | 1.0 | 6.0 | 0.00 | 0.00 | 0.00 | 34 | 1021.2 |
| 20260506143051 | 62 | 0 | 0.0 | 6.0 | 0.00 | 0.00 | 0.00 | 36 | 1021.2 |
| 20260506142539 | 61 | 0 | 1.0 | 6.0 | 0.00 | 0.00 | 0.00 | 37 | 1021.2 |
| 20260506142042 | 61 | 0 | 0.0 | 0.0 | 0.00 | 0.00 | 0.00 | 38 | 1021.2 |
| 20260506141545 | 61 | 0 | 0.0 | 6.0 | 0.00 | 0.00 | 0.00 | 38 | 1021.2 |
| 20260506141039 | 61 | 0 | 0.0 | 6.0 | 0.00 | 0.00 | 0.00 | 38 | 1021.2 |
| 20260506140537 | 61 | 229 | 2.0 | 6.0 | 0.00 | 0.00 | 0.00 | 37 | 1021.2 |
| 20260506140049 | 60 | 0 | 0.0 | 5.0 | 0.00 | 0.00 | 0.00 | 38 | 1021.2 |
| 20260506135538 | 60 | 0 | 0.0 | 5.0 | 0.00 | 0.00 | 0.00 | 39 | 1021.2 |
| 20260506135040 | 60 | 0 | 1.0 | 5.0 | 0.00 | 0.00 | 0.00 | 38 | 1021.2 |
| 20260506134551 | 60 | 0 | 0.0 | 4.0 | 0.00 | 0.00 | 0.00 | 39 | 1021.2 |
| 20260506134040 | 60 | 0 | 0.0 | 4.0 | 0.00 | 0.00 | 0.00 | 39 | 1021.2 |
| 20260506133541 | 60 | 119 | 0.0 | 4.0 | 0.00 | 0.00 | 0.00 | 40 | 1021.2 |
| 20260506133048 | 59 | 283 | 0.0 | 1.0 | 0.00 | 0.00 | 0.00 | 40 | 1021.2 |
| 20260506132540 | 59 | 264 | 0.0 | 3.0 | 0.00 | 0.00 | 0.00 | 40 | 1021.2 |
| 20260506132042 | 59 | 0 | 0.0 | 3.0 | 0.00 | 0.00 | 0.00 | 41 | 1021.2 |
| 20260506131600 | 58 | 0 | 0.0 | 1.0 | 0.00 | 0.00 | 0.00 | 42 | 1021.2 |
| 20260506131041 | 58 | 0 | 0.0 | 0.0 | 0.00 | 0.00 | 0.00 | 42 | 1021.2 |
| 20260506130540 | 58 | 0 | 0.0 | 2.0 | 0.00 | 0.00 | 0.00 | 42 | 1021.2 |
| 20260506130055 | 58 | 0 | 0.0 | 3.0 | 0.00 | 0.00 | 0.00 | 43 | 1021.2 |
| 20260506125539 | 58 | 0 | 0.0 | 3.0 | 0.00 | 0.00 | 0.00 | 42 | 1021.2 |
| 20260506125039 | 58 | 0 | 0.0 | 3.0 | 0.00 | 0.00 | 0.00 | 43 | 1021.2 |
| 20260506124552 | 57 | 0 | 0.0 | 4.0 | 0.00 | 0.00 | 0.00 | 44 | 1021.2 |
| 20260506124039 | 57 | 0 | 0.0 | 4.0 | 0.00 | 0.00 | 0.00 | 44 | 1021.2 |
| 20260506123539 | 55 | 283 | 0.0 | 4.0 | 0.00 | 0.00 | 0.00 | 47 | 1021.2 |
| 20260506123053 | 54 | 0 | 0.0 | 0.0 | 0.00 | 0.00 | 0.00 | 49 | 1021.2 |
| 20260506122539 | 55 | 0 | 0.0 | 0.0 | 0.00 | 0.00 | 0.00 | 48 | 1021.2 |
| 20260506122038 | 54 | 0 | 0.0 | 0.0 | 0.00 | 0.00 | 0.00 | 48 | 1021.2 |
| 20260506121552 | 55 | 0 | 0.0 | 0.0 | 0.00 | 0.00 | 0.00 | 48 | 1021.2 |
| 20260506121038 | 56 | 0 | 0.0 | 0.0 | 0.00 | 0.00 | 0.00 | 46 | 1021.2 |
| 20260506120541 | 56 | 0 | 0.0 | 0.0 | 0.00 | 0.00 | 0.00 | 46 | 1021.2 |
| 20260506120050 | 57 | 0 | 0.0 | 0.0 | 0.00 | 0.00 | 0.00 | 45 | 1021.2 |
| 20260506115539 | 58 | 0 | 0.0 | 0.0 | 0.00 | 0.00 | 0.00 | 43 | 1021.2 |
| 20260506115039 | 58 | 0 | 0.0 | 4.0 | 0.00 | 0.00 | 0.00 | 42 | 1021.2 |
| 20260506114550 | 59 | 0 | 0.0 | 4.0 | 0.00 | 0.00 | 0.00 | 42 | 1021.2 |
| 20260506114039 | 59 | 0 | 0.0 | 2.0 | 0.00 | 0.00 | 0.00 | 41 | 1021.2 |
| 20260506113539 | 59 | 223 | 0.0 | 1.0 | 0.00 | 0.00 | 0.00 | 41 | 1021.2 |
| 20260506113049 | 60 | 0 | 0.0 | 6.0 | 0.00 | 0.00 | 0.00 | 41 | 1021.2 |
| 20260506112541 | 60 | 0 | 0.0 | 6.0 | 0.00 | 0.00 | 0.00 | 40 | 1021.2 |
| 20260506112038 | 60 | 0 | 0.0 | 2.0 | 0.00 | 0.00 | 0.00 | 41 | 1021.2 |
| 20260506111552 | 61 | 120 | 0.0 | 4.0 | 0.00 | 0.00 | 0.00 | 40 | 1021.2 |
| 20260506111037 | 61 | 0 | 0.0 | 4.0 | 0.00 | 0.00 | 0.00 | 39 | 1021.2 |
| 20260506110538 | 61 | 0 | 0.0 | 7.0 | 0.00 | 0.00 | 0.00 | 39 | 1021.2 |
| 20260506110050 | 61 | 0 | 1.0 | 7.0 | 0.00 | 0.00 | 0.00 | 39 | 1021.2 |
| 20260506105539 | 61 | 237 | 0.0 | 8.0 | 0.00 | 0.00 | 0.00 | 39 | 1021.2 |
| 20260506105039 | 61 | 0 | 1.0 | 8.0 | 0.00 | 0.00 | 0.00 | 39 | 1021.2 |
| 20260506104555 | 61 | 225 | 2.0 | 9.0 | 0.00 | 0.00 | 0.00 | 39 | 1021.2 |
| 20260506104038 | 61 | 0 | 1.0 | 9.0 | 0.00 | 0.00 | 0.00 | 39 | 1021.2 |
| 20260506103538 | 61 | 267 | 2.0 | 9.0 | 0.00 | 0.00 | 0.00 | 39 | 1021.2 |
| 20260506103044 | 61 | 282 | 2.0 | 14.0 | 0.00 | 0.00 | 0.00 | 38 | 1021.2 |
| 20260506102538 | 61 | 223 | 4.0 | 14.0 | 0.00 | 0.00 | 0.00 | 38 | 1021.2 |
| 20260506102037 | 61 | 158 | 2.0 | 7.0 | 0.00 | 0.00 | 0.00 | 38 | 1021.2 |
| 20260506101549 | 61 | 232 | 3.0 | 8.0 | 0.00 | 0.00 | 0.00 | 39 | 1021.2 |
| 20260506101038 | 61 | 0 | 3.0 | 8.0 | 0.00 | 0.00 | 0.00 | 39 | 1021.2 |
| 20260506100539 | 61 | 261 | 3.0 | 8.0 | 0.00 | 0.00 | 0.00 | 38 | 1021.2 |
| 20260506100047 | 61 | 225 | 2.0 | 8.0 | 0.00 | 0.00 | 0.00 | 39 | 1021.2 |
| 20260506095538 | 61 | 231 | 0.0 | 7.0 | 0.00 | 0.00 | 0.00 | 39 | 1021.2 |
| 20260506095040 | 61 | 251 | 3.0 | 7.0 | 0.00 | 0.00 | 0.00 | 39 | 1021.2 |
| 20260506094604 | 61 | 263 | 2.0 | 6.0 | 0.00 | 0.00 | 0.00 | 39 | 1021.2 |
| 20260506094042 | 61 | 258 | 2.0 | 4.0 | 0.00 | 0.00 | 0.00 | 39 | 1021.2 |
| 20260506093540 | 61 | 0 | 0.0 | 4.0 | 0.00 | 0.00 | 0.00 | 39 | 1021.2 |
| 20260506093052 | 61 | 247 | 0.0 | 4.0 | 0.00 | 0.00 | 0.00 | 39 | 1021.2 |
| 20260506092538 | 60 | 216 | 1.0 | 4.0 | 0.00 | 0.00 | 0.00 | 39 | 1021.2 |
| 20260506092038 | 60 | 0 | 0.0 | 0.0 | 0.00 | 0.00 | 0.00 | 41 | 1021.2 |
| 20260506091551 | 60 | 0 | 0.0 | 0.0 | 0.00 | 0.00 | 0.00 | 42 | 1021.2 |
| 20260506091041 | 59 | 0 | 0.0 | 0.0 | 0.00 | 0.00 | 0.00 | 42 | 1021.2 |
| 20260506090538 | 58 | 0 | 0.0 | 0.0 | 0.00 | 0.00 | 0.00 | 44 | 1021.2 |
| 20260506090049 | 56 | 0 | 0.0 | 0.0 | 0.00 | 0.00 | 0.00 | 47 | 1021.2 |
| 20260506085538 | 56 | 0 | 0.0 | 0.0 | 0.00 | 0.00 | 0.00 | 49 | 1021.2 |
| 20260506085039 | 56 | 0 | 0.0 | 0.0 | 0.00 | 0.00 | 0.00 | 49 | 1021.2 |
| 20260506084550 | 56 | 0 | 0.0 | 0.0 | 0.00 | 0.00 | 0.00 | 47 | 1021.2 |
| 20260506084039 | 57 | 0 | 0.0 | 0.0 | 0.00 | 0.00 | 0.00 | 47 | 1021.2 |
| 20260506083543 | 58 | 0 | 0.0 | 0.0 | 0.00 | 0.00 | 0.00 | 46 | 1021.2 |
| 20260506083051 | 59 | 0 | 0.0 | 0.0 | 0.00 | 0.00 | 0.00 | 45 | 1021.2 |
| 20260506082538 | 60 | 0 | 0.0 | 0.0 | 0.00 | 0.00 | 0.00 | 43 | 1021.2 |
| 20260506082038 | 61 | 0 | 0.0 | 0.0 | 0.00 | 0.00 | 0.00 | 42 | 1021.2 |
| 20260506081551 | 61 | 0 | 0.0 | 0.0 | 0.00 | 0.00 | 0.00 | 40 | 1021.2 |
| 20260506081040 | 61 | 0 | 0.0 | 0.0 | 0.00 | 0.00 | 0.00 | 40 | 1021.2 |
| 20260506080541 | 61 | 0 | 0.0 | 0.0 | 0.00 | 0.00 | 0.00 | 39 | 1021.2 |
| 20260506073047 | 63 | 222 | 1.0 | 10.0 | 0.00 | 0.00 | 0.00 | 37 | 1021.2 |
| 20260506072543 | 63 | 198 | 3.0 | 10.0 | 0.00 | 0.00 | 0.00 | 37 | 1021.2 |
| 20260506072039 | 62 | 176 | 1.0 | 5.0 | 0.00 | 0.00 | 0.00 | 38 | 1021.2 |
| 20260506071551 | 61 | 228 | 1.0 | 9.0 | 0.00 | 0.00 | 0.00 | 39 | 1021.2 |
| 20260506071038 | 60 | 0 | 1.0 | 9.0 | 0.00 | 0.00 | 0.00 | 41 | 1021.2 |
| 20260506070540 | 57 | 0 | 0.0 | 0.0 | 0.00 | 0.00 | 0.00 | 45 | 1021.2 |
| 20260506062041 | 59 | 0 | 0.0 | 0.0 | 0.00 | 0.00 | 0.00 | 40 | 1021.2 |
| 20260506061545 | 60 | 0 | 0.0 | 0.0 | 0.00 | 0.00 | 0.00 | 39 | 1021.2 |
| 20260506061038 | 61 | 0 | 0.0 | 0.0 | 0.00 | 0.00 | 0.00 | 39 | 1021.2 |
| 20260506060539 | 62 | 0 | 0.0 | 0.0 | 0.00 | 0.00 | 0.00 | 38 | 1021.2 |
| 20260506051037 | 66 | 205 | 3.0 | 9.0 | 0.00 | 0.00 | 0.00 | 29 | 1021.2 |
| 20260506050537 | 66 | 198 | 1.0 | 7.0 | 0.00 | 0.00 | 0.00 | 29 | 1021.2 |
| 20260506045043 | 66 | 197 | 3.0 | 8.0 | 0.00 | 0.00 | 0.00 | 28 | 1021.2 |
| 20260506044559 | 66 | 191 | 2.0 | 6.0 | 0.00 | 0.00 | 0.00 | 28 | 1021.2 |
| 20260506044038 | 66 | 278 | 2.0 | 12.0 | 0.00 | 0.00 | 0.00 | 28 | 1021.2 |
| 20260506043537 | 66 | 218 | 4.0 | 12.0 | 0.00 | 0.00 | 0.00 | 28 | 1021.2 |
| 20260506043044 | 66 | 213 | 2.0 | 7.0 | 0.00 | 0.00 | 0.00 | 28 | 1021.2 |
| 20260506042538 | 66 | 0 | 2.0 | 7.0 | 0.00 | 0.00 | 0.00 | 28 | 1021.2 |
| 20260506042041 | 66 | 231 | 4.0 | 7.0 | 0.00 | 0.00 | 0.00 | 28 | 1021.2 |
| 20260506041550 | 66 | 219 | 2.0 | 7.0 | 0.00 | 0.00 | 0.00 | 29 | 1021.2 |
| 20260506041037 | 65 | 218 | 4.0 | 10.0 | 0.00 | 0.00 | 0.00 | 29 | 1021.2 |
| 20260506040538 | 65 | 225 | 4.0 | 10.0 | 0.00 | 0.00 | 0.00 | 29 | 1021.2 |
| 20260506040049 | 65 | 212 | 2.0 | 8.0 | 0.00 | 0.00 | 0.00 | 30 | 1021.2 |
| 20260506035544 | 64 | 179 | 3.0 | 8.0 | 0.00 | 0.00 | 0.00 | 30 | 1021.2 |
| 20260506035041 | 64 | 207 | 2.0 | 6.0 | 0.00 | 0.00 | 0.00 | 32 | 1021.2 |
| 20260506034551 | 62 | 196 | 2.0 | 6.0 | 0.00 | 0.00 | 0.00 | 33 | 1021.2 |
| 20260506034039 | 61 | 151 | 1.0 | 4.0 | 0.00 | 0.00 | 0.00 | 35 | 1021.2 |
| 20260506033537 | 59 | 0 | 0.0 | 4.0 | 0.00 | 0.00 | 0.00 | 39 | 1021.2 |
| 20260506033052 | 59 | 0 | 0.0 | 4.0 | 0.00 | 0.00 | 0.00 | 40 | 1021.2 |
| 20260506032542 | 58 | 0 | 0.0 | 0.0 | 0.00 | 0.00 | 0.00 | 40 | 1021.2 |
| 20260506032041 | 58 | 0 | 0.0 | 0.0 | 0.00 | 0.00 | 0.00 | 40 | 1021.2 |
| 20260506031557 | 59 | 0 | 0.0 | 0.0 | 0.00 | 0.00 | 0.00 | 40 | 1021.2 |
| 20260506031044 | 60 | 0 | 0.0 | 0.0 | 0.00 | 0.00 | 0.00 | 39 | 1021.2 |
| 20260506030541 | 60 | 0 | 0.0 | 0.0 | 0.00 | 0.00 | 0.00 | 37 | 1021.2 |
| 20260506030050 | 61 | 0 | 0.0 | 0.0 | 0.00 | 0.00 | 0.00 | 36 | 1021.2 |
| 20260506025538 | 62 | 0 | 0.0 | 0.0 | 0.00 | 0.00 | 0.00 | 34 | 1021.2 |
| 20260506025038 | 63 | 0 | 0.0 | 0.0 | 0.00 | 0.00 | 0.00 | 33 | 1021.2 |
| 20260506024558 | 65 | 0 | 0.0 | 1.0 | 0.00 | 0.00 | 0.00 | 32 | 1021.2 |
| 20260506024038 | 65 | 0 | 0.0 | 2.0 | 0.00 | 0.00 | 0.00 | 30 | 1021.2 |
| 20260506023538 | 66 | 0 | 0.0 | 5.0 | 0.00 | 0.00 | 0.00 | 30 | 1021.2 |
| 20260506023050 | 66 | 179 | 1.0 | 5.0 | 0.00 | 0.00 | 0.00 | 30 | 1021.2 |
| 20260506022540 | 66 | 0 | 0.0 | 2.0 | 0.00 | 0.00 | 0.00 | 29 | 1021.2 |
| 20260506022037 | 67 | 277 | 0.0 | 7.0 | 0.00 | 0.00 | 0.00 | 29 | 1021.2 |
| 20260506021553 | 67 | 284 | 0.0 | 7.0 | 0.00 | 0.00 | 0.00 | 28 | 1021.2 |
| 20260506021039 | 67 | 262 | 1.0 | 7.0 | 0.00 | 0.00 | 0.00 | 28 | 1021.2 |
| 20260506020538 | 67 | 0 | 0.0 | 5.0 | 0.00 | 0.00 | 0.00 | 28 | 1021.2 |
| 20260506020045 | 67 | 249 | 1.0 | 4.0 | 0.00 | 0.00 | 0.00 | 28 | 1021.2 |
| 20260506015544 | 67 | 0 | 0.0 | 4.0 | 0.00 | 0.00 | 0.00 | 28 | 1021.2 |
| 20260506015038 | 68 | 0 | 1.0 | 6.0 | 0.00 | 0.00 | 0.00 | 28 | 1021.2 |
| 20260506014551 | 68 | 241 | 1.0 | 6.0 | 0.00 | 0.00 | 0.00 | 28 | 1021.2 |
| 20260506014041 | 68 | 173 | 0.0 | 4.0 | 0.00 | 0.00 | 0.00 | 29 | 1021.2 |
| 20260506013538 | 68 | 234 | 2.0 | 4.0 | 0.00 | 0.00 | 0.00 | 29 | 1021.2 |
| 20260506013052 | 68 | 0 | 0.0 | 4.0 | 0.00 | 0.00 | 0.00 | 29 | 1021.2 |
| 20260506012539 | 68 | 291 | 1.0 | 5.0 | 0.00 | 0.00 | 0.00 | 29 | 1021.2 |
| 20260506012041 | 68 | 236 | 0.0 | 5.0 | 0.00 | 0.00 | 0.00 | 30 | 1021.2 |
| 20260506011550 | 68 | 0 | 0.0 | 7.0 | 0.00 | 0.00 | 0.00 | 30 | 1021.2 |
| 20260506011038 | 69 | 0 | 2.0 | 7.0 | 0.00 | 0.00 | 0.00 | 30 | 1021.2 |
| 20260506010541 | 69 | 177 | 0.0 | 8.0 | 0.00 | 0.00 | 0.00 | 30 | 1021.2 |
| 20260506010043 | 69 | 242 | 2.0 | 8.0 | 0.00 | 0.00 | 0.00 | 31 | 1021.2 |
| 20260506005537 | 69 | 221 | 2.0 | 11.0 | 0.00 | 0.00 | 0.00 | 30 | 1021.2 |
| 20260506005038 | 69 | 0 | 3.0 | 11.0 | 0.00 | 0.00 | 0.00 | 30 | 1021.2 |
| 20260506004546 | 69 | 0 | 2.0 | 9.0 | 0.00 | 0.00 | 0.00 | 30 | 1021.2 |
| 20260506004038 | 69 | 217 | 3.0 | 9.0 | 0.00 | 0.00 | 0.00 | 30 | 1021.2 |
| 20260506003537 | 69 | 169 | 2.0 | 5.0 | 0.00 | 0.00 | 0.00 | 30 | 1021.2 |
| 20260506003044 | 69 | 219 | 2.0 | 6.0 | 0.00 | 0.00 | 0.00 | 30 | 1021.2 |
| 20260506002541 | 69 | 0 | 2.0 | 8.0 | 0.00 | 0.00 | 0.00 | 30 | 1021.2 |
| 20260506002039 | 69 | 201 | 2.0 | 8.0 | 0.00 | 0.00 | 0.00 | 30 | 1021.2 |
| 20260506001546 | 69 | 238 | 1.0 | 6.0 | 0.00 | 0.00 | 0.00 | 30 | 1021.2 |
| 20260506001038 | 69 | 229 | 2.0 | 6.0 | 0.00 | 0.00 | 0.00 | 30 | 1021.2 |
| 20260506000537 | 69 | 226 | 2.0 | 6.0 | 0.00 | 0.00 | 0.00 | 30 | 1021.2 |
| 20260506000048 | 69 | 210 | 2.0 | 8.0 | 0.00 | 0.00 | 0.00 | 29 | 1021.2 |
| 20260505235540 | 69 | 190 | 1.0 | 9.0 | 0.00 | 0.00 | 0.00 | 29 | 1021.2 |
| 20260505235038 | 69 | 200 | 4.0 | 10.0 | 0.00 | 0.00 | 0.00 | 29 | 1021.2 |
| 20260505234551 | 70 | 249 | 3.0 | 10.0 | 0.00 | 0.00 | 0.00 | 29 | 1021.2 |
| 20260505234040 | 70 | 243 | 2.0 | 9.0 | 0.00 | 0.00 | 0.00 | 29 | 1021.2 |
| 20260505233537 | 70 | 174 | 5.0 | 12.0 | 0.00 | 0.00 | 0.00 | 29 | 1021.2 |
| 20260505233045 | 70 | 232 | 5.0 | 12.0 | 0.00 | 0.00 | 0.00 | 29 | 1021.2 |
| 20260505232538 | 70 | 210 | 4.0 | 10.0 | 0.00 | 0.00 | 0.00 | 28 | 1021.2 |
| 20260505232039 | 70 | 249 | 3.0 | 10.0 | 0.00 | 0.00 | 0.00 | 28 | 1021.2 |
| 20260505231601 | 70 | 255 | 5.0 | 12.0 | 0.00 | 0.00 | 0.00 | 28 | 1021.2 |
| 20260505231037 | 70 | 233 | 6.0 | 12.0 | 0.00 | 0.00 | 0.00 | 28 | 1021.2 |
| 20260505230537 | 70 | 233 | 3.0 | 12.0 | 0.00 | 0.00 | 0.00 | 28 | 1021.2 |
| 20260505230055 | 70 | 238 | 4.0 | 16.0 | 0.00 | 0.00 | 0.00 | 28 | 1021.2 |
| 20260505225537 | 70 | 242 | 7.0 | 16.0 | 0.00 | 0.00 | 0.00 | 27 | 1021.2 |
| 20260505225041 | 70 | 250 | 4.0 | 15.0 | 0.00 | 0.00 | 0.00 | 27 | 1021.2 |
| 20260505224552 | 70 | 229 | 4.0 | 15.0 | 0.00 | 0.00 | 0.00 | 27 | 1021.2 |
| 20260505224038 | 70 | 221 | 5.0 | 15.0 | 0.00 | 0.00 | 0.00 | 27 | 1021.2 |
| 20260505223538 | 70 | 224 | 5.0 | 15.0 | 0.00 | 0.00 | 0.00 | 27 | 1021.2 |
| 20260505223056 | 70 | 227 | 6.0 | 17.0 | 0.00 | 0.00 | 0.00 | 27 | 1021.2 |
| 20260505222540 | 70 | 196 | 7.0 | 17.0 | 0.00 | 0.00 | 0.00 | 27 | 1021.2 |
| 20260505222039 | 70 | 238 | 6.0 | 14.0 | 0.00 | 0.00 | 0.00 | 27 | 1021.2 |
| 20260505221551 | 70 | 199 | 6.0 | 12.0 | 0.00 | 0.00 | 0.00 | 27 | 1021.2 |
| 20260505221041 | 70 | 196 | 4.0 | 10.0 | 0.00 | 0.00 | 0.00 | 27 | 1021.2 |
| 20260505220539 | 70 | 243 | 4.0 | 14.0 | 0.00 | 0.00 | 0.00 | 27 | 1021.2 |
| 20260505220048 | 70 | 232 | 7.0 | 17.0 | 0.00 | 0.00 | 0.00 | 27 | 1021.2 |
| 20260505215539 | 70 | 212 | 6.0 | 17.0 | 0.00 | 0.00 | 0.00 | 27 | 1021.2 |
| 20260505215040 | 70 | 214 | 5.0 | 19.0 | 0.00 | 0.00 | 0.00 | 27 | 1021.2 |
| 20260505214545 | 70 | 219 | 7.0 | 19.0 | 0.00 | 0.00 | 0.00 | 27 | 1021.2 |
| 20260505214039 | 71 | 219 | 6.0 | 14.0 | 0.00 | 0.00 | 0.00 | 25 | 1021.2 |
| 20260505213539 | 71 | 184 | 4.0 | 13.0 | 0.00 | 0.00 | 0.00 | 26 | 1021.2 |
| 20260505213056 | 71 | 221 | 5.0 | 12.0 | 0.00 | 0.00 | 0.00 | 27 | 1021.2 |
| 20260505212540 | 71 | 215 | 6.0 | 12.0 | 0.00 | 0.00 | 0.00 | 27 | 1021.2 |
| 20260505212040 | 71 | 249 | 3.0 | 15.0 | 0.00 | 0.00 | 0.00 | 26 | 1021.2 |
| 20260505211548 | 71 | 195 | 6.0 | 15.0 | 0.00 | 0.00 | 0.00 | 27 | 1021.2 |
| 20260505211043 | 71 | 251 | 4.0 | 12.0 | 0.00 | 0.00 | 0.00 | 27 | 1021.2 |
| 20260505210539 | 71 | 0 | 4.0 | 16.0 | 0.00 | 0.00 | 0.00 | 28 | 1021.2 |
| 20260505210047 | 71 | 240 | 6.0 | 16.0 | 0.00 | 0.00 | 0.00 | 28 | 1021.2 |
| 20260505205540 | 71 | 263 | 7.0 | 18.0 | 0.00 | 0.00 | 0.00 | 28 | 1021.2 |
| 20260505205041 | 72 | 267 | 6.0 | 21.0 | 0.00 | 0.00 | 0.00 | 27 | 1021.2 |